Weather in Lebyazh'ye 1-e

Russia / Kurgan Oblast     55°19′37″N   66°27′24″E
В апреле 2022 года жителям России запретили посещать сайт meteo.paraplan.net по решению Генеральной прокуратуры. Аудитория сайта уменьшилась в 10 раз. Владельцы сайта не видят смысла в поддержке погодного сервера в таких условиях. Сайт будет закрыт в октябре.
temp.,
°C
wind,
m/s
gust,
m/s
humid.,
%
clouds,
%
prec.,
mm/h
press.,
hPa
HPBL,
m
25 september, sun
sun2523:00+20w2238100 0.0 101013
02:00+20nne333590 0.0 100937
05:00+17ne464782 0.0 100990
08:00+16ene486359 0.1 1009239
11:00+19ne775180 0.1 1010715
14:00+18ne7754100 0.0 1011892
17:00+15ene7861100 0.0 1012805
20:00+11ene81270100 0.0 1013576
26 september, mon
mon2623:00+8ene81378100 0.3 1013494
02:00+6e81385100 1.1 1012532
05:00+6ene91588100 2.1 1010582
08:00+5e101689100 2.4 1008650
11:00+4e111790100 7.6 1007713
14:00+3e81494100 9.1 1008694
17:00+3e91292100 9.3 1008580
20:00+3e71193100 0.4 1008545
27 september, tue
tue2723:00+2ne71296100 2.0 1008490
02:00+1ne71296100 0.7 1009495
05:00+1nne61196100 0.9 1011562
08:00+1nne71196100 0.4 1013571
11:00+1nne6885100 0.6 1015669
14:00+2nne6777100 0.1 1017877
17:00+3nne5668100 0.1 10181049
20:00+1n3587100 0.0 1020150
28 september, wed
wed2823:00+1nnw2486100 0.0 102092
02:000n238396 0.0 102065
05:00−1n348577 0.0 1021118
08:00−1n357945 0.0 1022220
11:00+2n336483 0.0 1023931
14:00+2nnw4463100 0.1 10231020
17:00+2n5562100 0.3 10231041
20:00+1nnw4876100 0.3 1024405
29 september, thu
thu2923:00−2n48875 0.3 1025236
02:00−2nnw48895 0.0 1026255
05:00−3nnw48895 0.0 1027290
08:00−2n58815 0.0 1028386
11:00+2n5662100 0.0 10291201
14:00+2n5560100 0.1 10291103
17:00+2nne456179 0.2 10311049
20:00−1n33785 0.0 103345